Home > Weather > Vista > Past weeks

Flag for USA Weather for the Past 2 Weeks in Vista, California, USA

Now
60 °F

Clear.


Feels Like: 60 °F
Forecast: 52 / 67 °F
Wind: 3 mph from Southwest

Location: McClellan-Palomar Airport

Current Time: Apr 30, 2016 at 9:30:44 PM

Latest Report: Apr 30, 2016 at 8:53 PM


Visibility: 10 mi

Pressure: 29.83 "Hg

Humidity: 75%

Dew Point: 52 °F

Location of VistaLocation

Historic Weather in Vista — Graph

°F

Vista Temperature Yesterday

Maximum temperature yesterday: 64 °F (at 11:53 AM)
Minimum temperature yesterday: 54 °F (at 4:53 AM)
Average temperature yesterday: 60 °F

High & Low Weather Summary for the Past Weeks

 TemperatureHumidityPressure
High82 °F (Apr 17, 12:53 PM)87% (Apr 22, 3:53 AM)30.05 "Hg (Apr 22, 3:53 AM)
Low52 °F (Apr 26, 5:53 AM)11% (Apr 16, 10:53 AM)29.78 "Hg (Apr 30, 3:53 PM)
Average64 °F56%29.92 "Hg
* Reported Apr 15 7:53 PM — Apr 30 7:01 PM, Vista, Weather by CustomWeather, © 2016

Note: Actual official high and low records may vary slightly from our data, if they occured in-between our weather recording intervals... More about our weather records

Advertising

Vista Weather History for the Previous 24 Hours

Scroll right to see more
 ConditionsComfort  
Time TempWeatherWind HumidityBarometerVisibility
7:01 PM
Sat, Apr 30
61 °FScattered clouds.6 mph72%29.82 "Hg10 mi
5:53 PM62 °FPassing clouds.8 mph70%29.79 "Hg10 mi
4:53 PM64 °FSunny.8 mph61%29.78 "Hg10 mi
3:53 PM63 °FSunny.10 mph60%29.78 "Hg10 mi
2:53 PM63 °FPassing clouds.8 mph63%29.80 "Hg10 mi
1:53 PM63 °FSunny.12 mph60%29.80 "Hg10 mi
12:53 PM63 °FScattered clouds.12 mph60%29.80 "Hg10 mi
11:53 AM62 °FBroken clouds.10 mph65%29.81 "Hg10 mi
10:53 AM62 °FOvercast.12 mph62%29.82 "Hg10 mi
10:04 AM60 °FMostly cloudy.8 mph67%29.84 "Hg10 mi
8:53 AM58 °FPartly sunny.9 mph78%29.82 "Hg10 mi
7:53 AM57 °FMore clouds than sun.10 mph78%29.82 "Hg10 mi
6:53 AM56 °FOvercast.9 mph77%29.83 "Hg10 mi
5:53 AM57 °FMostly cloudy.10 mph72%29.82 "Hg10 mi
4:53 AM57 °FMostly cloudy.8 mph72%29.83 "Hg10 mi
3:53 AM57 °FOvercast.12 mph78%29.83 "Hg10 mi
2:53 AM58 °FMostly cloudy.7 mph75%29.85 "Hg10 mi
1:53 AM58 °FMostly cloudy.12 mph78%29.87 "Hg10 mi
12:53 AM59 °FOvercast.8 mph78%29.89 "Hg10 mi
11:53 PM
Fri, Apr 29
59 °FLight rain. Overcast.8 mph87%29.89 "Hg8 mi
10:53 PM60 °FMostly cloudy.8 mph78%29.90 "Hg10 mi
9:53 PM60 °FOvercast.5 mph78%29.92 "Hg10 mi
Weather by CustomWeather, © 2016

See weather overviewHow to use our weather pages